Hourly Data Report for August 06, 2006

TORONTO CITY
ONTARIO

43°40'00.000" N
79°24'00.000" W
112.50 m
6158355
71508
XTO

Download Data

Hourly Data (August 2006)
Hourly Data Report for August 6, 2006
TIME
LST
Temp Definition
°C
Dew Point Definition
°C
Rel Hum Definition
%
Precip. Amount Definition
mm

Wind Dir Definition
10's deg

Wind Spd Definition
km/h
Visibility Definition
km
Stn Press Definition
kPa
Hmdx Definition


Wind Chill Definition


Weather Definition


00:00 21.8 17.7 78   LegendMM LegendMM   100.72 28   LegendNANA
01:00 21.2 17.8 81   LegendMM LegendMM   100.74 27   LegendNANA
02:00 21.4 17.6 79   LegendMM LegendMM   100.72 27   LegendNANA
03:00 21.5 18.3 82   LegendMM LegendMM   100.70 28   LegendNANA
04:00 21.1 18.1 83   LegendMM LegendMM   100.68 27   LegendNANA
05:00 20.4 17.9 86   LegendMM LegendMM   100.70 26   LegendNANA
06:00 21.0 18.5 86   LegendMM LegendMM   100.71 27   LegendNANA
07:00 22.0 19.2 84   LegendMM LegendMM   100.73 29   LegendNANA
08:00 23.1 19.8 82   LegendMM LegendMM   100.71 31   LegendNANA
09:00 23.9 18.3 71   LegendMM LegendMM   100.68 30   LegendNANA
10:00 24.8 19.0 70   LegendMM LegendMM   100.65 32   LegendNANA
11:00 25.9 17.7 61   LegendMM LegendMM   100.62 32   LegendNANA
12:00 26.4 15.5 51   LegendMM LegendMM   100.53 31   LegendNANA
13:00 26.1 17.1 58   LegendMM LegendMM   100.46 31   LegendNANA
14:00 25.4 17.2 60   LegendMM LegendMM   100.41 31   LegendNANA
15:00 26.2 17.3 58   LegendMM LegendMM   100.36 32   LegendNANA
16:00 26.0 17.6 60   LegendMM LegendMM   100.32 32   LegendNANA
17:00 25.2 18.1 65   LegendMM LegendMM   100.24 31   LegendNANA
18:00 24.4 19.4 74   LegendMM LegendMM   100.13 31   LegendNANA
19:00 24.3 19.8 76   LegendMM LegendMM   100.15 32   LegendNANA
20:00 23.8 19.9 79   LegendMM LegendMM   100.05 31   LegendNANA
21:00 23.4 20.4 83   LegendMM LegendMM   100.09 31   LegendNANA
22:00 23.7 20.9 84   LegendMM LegendMM   100.06 32   LegendNANA
23:00 23.4 20.7 85   LegendMM LegendMM   100.05 32   LegendNANA

Notes on Data Quality.

Legend

  • E = Estimated
  • M = Missing
  • NA = Not Available*
  • [empty] = Indicates an unobserved value
Date modified: